Location: ČR
(50.0000°N, 15.0000°E)
Time: 02:38:00
(UTC+00:00)

N. Korean satellite - Pass Details

Date: 01 October 2021
Orbit: 450 x 495 km, 97.3° (Epoch: 22 October)

Event Time Altitude Azimuth Distance (km) Brightness Sun altitude
Rises 03:49:23 0° 21° (NNE) 2,546 10.7 -12.1°
Reaches altitude 10° 03:51:36 10° 31° (NNE) 1,669 9.9 -11.8°
Maximum altitude 03:54:52 32° 96° (E) 849 8.6 -11.3°
Drops below altitude 10° 03:58:09 10° 162° (SSE) 1,676 9.4 -10.8°
Sets 04:00:22 0° 172° (S) 2,558 10.2 -10.4°
